FW6455 Weather Reports


Display with metric or nautical units.
time (UTC)temp
F
wind
direction
speed
MPH
gust
MPH
rain 1hr
in
rain 24hr
in
rain mn
in
humidity
%
barometer
mb
20200219092542 47 33 1.0 7.0 0.00 0.16 0.00 75 1026.6
20200219092035 47 17 2.0 7.0 0.00 0.16 0.00 75 1026.7
20200219091037 47 49 2.0 6.0 0.00 0.16 0.00 75 1026.7
20200219090538 47 320 2.0 6.0 0.00 0.16 0.00 74 1026.9
20200219090100 47 60 2.0 7.0 0.00 0.16 0.00 74 1026.8
20200219085537 47 14 2.0 7.0 0.00 0.16 0.00 74 1027.0
20200219085039 47 302 2.0 5.0 0.00 0.16 0.00 75 1026.9
20200219084559 47 351 2.0 7.0 0.00 0.16 0.00 75 1026.6
20200219084039 47 13 4.0 7.0 0.00 0.16 0.00 75 1026.7
20200219083538 47 27 2.0 7.0 0.00 0.16 0.00 75 1026.9
20200219083221 47 328 2.0 7.0 0.00 0.16 0.00 75 1027.1
20200219082538 47 15 1.0 6.0 0.00 0.16 0.00 74 1027.1
20200219082042 47 333 1.0 8.0 0.00 0.16 0.00 75 1027.0
20200219081615 47 18 3.0 8.0 0.00 0.16 0.00 75 1026.9
20200219081040 47 356 1.0 7.0 0.00 0.16 0.00 75 1027.0
20200219080545 47 349 2.0 9.0 0.00 0.16 0.00 74 1027.0
20200219080048 47 21 3.0 9.0 0.00 0.16 0.00 74 1026.9
20200219075538 48 4 1.0 7.0 0.00 0.16 0.00 74 1026.9
20200219075038 48 27 2.0 9.0 0.00 0.16 0.00 74 1026.7
20200219074639 48 6 3.0 9.0 0.00 0.16 0.00 74 1026.8
20200219074038 48 18 3.0 7.0 0.00 0.16 0.00 74 1026.8
20200219073550 48 34 2.0 9.0 0.00 0.16 0.00 74 1026.7
20200219073143 48 68 4.0 9.0 0.00 0.16 0.00 74 1026.7
20200219072542 49 35 3.0 10.0 0.00 0.16 0.00 74 1026.7
20200219072038 49 44 4.0 10.0 0.00 0.16 0.00 74 1026.8
20200219071603 49 13 4.0 9.0 0.00 0.16 0.00 73 1026.6
20200219071037 49 15 2.0 9.0 0.00 0.16 0.00 73 1026.8
20200219070540 49 335 3.0 9.0 0.00 0.16 0.00 73 1026.6
20200219070105 49 21 3.0 9.0 0.00 0.16 0.00 72 1026.8
20200219065542 49 347 4.0 10.0 0.00 0.16 0.00 72 1027.0
20200219065039 50 39 3.0 11.0 0.00 0.16 0.00 73 1026.8
20200219064552 50 18 5.0 11.0 0.00 0.16 0.00 72 1027.0
20200219064039 50 44 5.0 9.0 0.00 0.16 0.00 72 1027.0
20200219063610 50 12 3.0 7.0 0.00 0.16 0.00 73 1027.1
20200219063142 50 27 2.0 7.0 0.00 0.16 0.00 75 1027.2
20200219062547 50 13 2.0 8.0 0.00 0.16 0.00 74 1027.1
20200219062039 50 10 3.0 12.0 0.00 0.16 0.00 74 1027.2
20200219061608 50 34 5.0 12.0 0.00 0.16 0.00 73 1026.8
20200219061036 50 59 5.0 9.0 0.00 0.16 0.00 74 1026.8
20200219060536 50 359 5.0 10.0 0.00 0.16 0.00 74 1027.0
20200219060045 50 39 4.0 13.0 0.00 0.16 0.00 73 1027.1
20200219055539 50 28 5.0 13.0 0.00 0.16 0.16 73 1027.1
20200219055038 51 23 4.0 10.0 0.00 0.16 0.16 73 1027.2
20200219054602 51 40 2.0 9.0 0.00 0.16 0.16 73 1027.1
20200219054039 51 48 3.0 9.0 0.00 0.16 0.16 72 1027.2
20200219053539 51 1 4.0 8.0 0.00 0.16 0.16 72 1027.2
20200219053207 51 38 2.0 11.0 0.00 0.16 0.16 71 1027.1
20200219052552 51 18 3.0 11.0 0.00 0.16 0.16 71 1027.1
20200219052043 51 28 4.0 11.0 0.00 0.16 0.16 71 1026.7
20200219051646 51 15 4.0 11.0 0.00 0.16 0.16 71 1026.6
20200219051038 51 53 4.0 10.0 0.00 0.16 0.16 71 1026.8
20200219050537 51 34 4.0 10.0 0.00 0.16 0.16 71 1026.8
20200219050146 51 45 4.0 11.0 0.00 0.16 0.16 71 1026.8
20200219045543 51 39 4.0 11.0 0.00 0.16 0.16 71 1026.3
20200219045039 51 50 3.0 9.0 0.00 0.16 0.16 71 1026.4
20200219044650 51 20 5.0 9.0 0.00 0.16 0.16 70 1026.6
20200219044039 51 40 4.0 9.0 0.00 0.16 0.16 70 1026.8
20200219043545 51 75 3.0 10.0 0.00 0.16 0.16 71 1026.8
20200219043052 51 37 4.0 10.0 0.00 0.16 0.16 70 1026.9
20200219042538 51 33 3.0 9.0 0.00 0.16 0.16 70 1026.6
20200219042040 51 58 4.0 10.0 0.00 0.16 0.16 70 1026.4
20200219041558 51 19 4.0 10.0 0.00 0.16 0.16 70 1026.2
20200219041040 51 60 5.0 10.0 0.00 0.16 0.16 69 1026.1
20200219040546 51 49 4.0 9.0 0.00 0.16 0.16 69 1026.4
20200219040055 51 56 3.0 11.0 0.00 0.16 0.16 69 1026.3
20200219035537 52 32 5.0 11.0 0.00 0.16 0.16 68 1026.1
20200219035046 52 53 5.0 11.0 0.00 0.16 0.16 68 1026.0
20200219034659 52 57 4.0 10.0 0.00 0.16 0.16 68 1026.0
20200219034042 52 48 4.0 10.0 0.00 0.16 0.16 68 1025.9
20200219033539 52 17 3.0 9.0 0.00 0.16 0.16 68 1026.0
20200219033043 52 40 3.0 10.0 0.00 0.16 0.16 68 1026.0
20200219032541 52 14 5.0 10.0 0.00 0.16 0.16 67 1025.7
20200219032038 52 53 4.0 12.0 0.00 0.16 0.16 67 1025.7
20200219031730 52 51 5.0 12.0 0.00 0.16 0.16 66 1025.7
20200219031043 52 70 3.0 9.0 0.00 0.16 0.16 67 1025.3
20200219030537 52 49 3.0 12.0 0.00 0.16 0.16 67 1025.5
20200219030043 52 23 4.0 12.0 0.00 0.16 0.16 67 1025.6
20200219025535 52 58 3.0 8.0 0.00 0.16 0.16 66 1025.5
20200219025052 52 22 3.0 9.0 0.00 0.16 0.16 66 1025.3
20200219024604 52 29 4.0 11.0 0.00 0.16 0.16 66 1025.3
20200219024038 52 51 4.0 11.0 0.00 0.16 0.16 66 1025.3
20200219023537 52 44 4.0 9.0 0.00 0.16 0.16 66 1024.8
20200219023049 52 34 3.0 7.0 0.00 0.16 0.16 67 1024.8
20200219022540 52 39 3.0 7.0 0.00 0.16 0.16 67 1024.9
20200219022038 52 339 3.0 11.0 0.00 0.16 0.16 67 1024.9
20200219021556 52 22 4.0 11.0 0.00 0.16 0.16 67 1024.9
20200219021038 52 47 2.0 6.0 0.00 0.16 0.16 67 1024.7
20200219020539 52 356 3.0 8.0 0.00 0.16 0.16 67 1024.7
20200219020106 52 23 2.0 8.0 0.00 0.16 0.16 67 1024.6
20200219015552 52 31 2.0 8.0 0.00 0.16 0.16 67 1024.5
20200219015041 52 34 3.0 9.0 0.00 0.16 0.16 66 1024.3
20200219014630 52 347 3.0 9.0 0.00 0.16 0.16 67 1024.4
20200219014045 52 27 3.0 8.0 0.00 0.16 0.16 67 1024.2
20200219013538 52 353 3.0 10.0 0.00 0.16 0.16 67 1024.1
20200219013100 52 45 4.0 10.0 0.00 0.16 0.16 67 1024.2
20200219012542 52 50 4.0 8.0 0.00 0.16 0.16 67 1023.9
20200219012038 52 37 2.0 7.0 0.00 0.16 0.16 67 1023.9
20200219011611 52 335 3.0 8.0 0.00 0.16 0.16 67 1023.8
20200219011037 52 21 4.0 9.0 0.00 0.16 0.16 67 1023.8
20200219010546 52 34 3.0 9.0 0.00 0.16 0.16 67 1023.8
20200219010129 52 56 3.0 8.0 0.00 0.16 0.16 67 1023.9
20200219005539 52 9 3.0 9.0 0.00 0.16 0.16 67 1023.9
20200219005233 52 40 2.0 9.0 0.00 0.16 0.16 68 1024.0
20200219004620 52 12 3.0 6.0 0.00 0.16 0.16 68 1023.9
20200219004037 52 37 2.0 6.0 0.00 0.16 0.16 68 1024.0
20200219003537 52 49 1.0 6.0 0.00 0.16 0.16 68 1023.9
20200219003102 52 309 2.0 6.0 0.00 0.16 0.16 68 1023.9
20200219002536 52 23 1.0 6.0 0.00 0.16 0.16 69 1023.5
20200219002040 52 32 2.0 6.0 0.00 0.16 0.16 68 1023.3
20200219001558 52 37 2.0 6.0 0.00 0.16 0.16 69 1023.4
20200219001047 52 342 2.0 7.0 0.00 0.16 0.16 68 1023.4
20200219000540 52 22 2.0 7.0 0.00 0.16 0.16 68 1023.3
20200219000126 52 49 3.0 7.0 0.00 0.16 0.16 68 1023.1
20200218235538 52 39 1.0 5.0 0.00 0.16 0.16 68 1023.3
20200218235042 52 23 2.0 6.0 0.00 0.16 0.16 68 1023.2
20200218234623 52 300 2.0 8.0 0.00 0.16 0.16 68 1023.2
20200218234042 52 15 3.0 8.0 0.00 0.16 0.16 68 1023.3
20200218233541 52 329 3.0 6.0 0.00 0.16 0.16 69 1023.2
20200218233137 52 339 2.0 5.0 0.00 0.16 0.16 69 1023.2
20200218232555 52 336 1.0 7.0 0.00 0.16 0.16 71 1023.0
20200218232038 52 343 2.0 7.0 0.00 0.16 0.16 70 1022.8
20200218231615 52 49 2.0 6.0 0.00 0.16 0.16 70 1022.6
20200218231037 52 342 3.0 6.0 0.00 0.16 0.16 69 1022.4
20200218230545 52 322 2.0 5.0 0.00 0.16 0.16 70 1022.8
20200218230135 52 23 1.0 7.0 0.00 0.16 0.16 70 1022.9
20200218225535 52 48 2.0 8.0 0.00 0.16 0.16 70 1022.3
20200218225038 52 29 3.0 8.0 0.00 0.16 0.16 70 1022.0
20200218224722 52 60 3.0 7.0 0.00 0.16 0.16 70 1021.8
20200218224047 52 58 2.0 9.0 0.00 0.16 0.16 71 1021.9
20200218223547 52 30 2.0 9.0 0.00 0.16 0.16 71 1022.4
20200218223051 52 37 2.0 5.0 0.00 0.16 0.16 72 1022.2
20200218222540 52 328 2.0 7.0 0.00 0.16 0.16 72 1022.6
20200218222111 52 315 4.0 7.0 0.00 0.16 0.16 71 1022.3
20200218221539 52 315 2.0 9.0 0.00 0.16 0.16 72 1022.1
20200218221039 52 285 4.0 11.0 0.00 0.16 0.16 73 1022.1
20200218220542 52 324 4.0 11.0 0.00 0.16 0.16 73 1021.9
20200218220043 52 6 3.0 11.0 0.00 0.16 0.16 74 1021.3
20200218215538 51 325 3.0 14.0 0.00 0.16 0.16 73 1020.9
20200218215036 51 345 4.0 14.0 0.00 0.16 0.16 75 1020.4
20200218214611 51 326 3.0 8.0 0.00 0.16 0.16 74 1020.8
20200218214037 51 290 4.0 10.0 0.00 0.16 0.16 76 1021.0
20200218213539 51 37 4.0 10.0 0.00 0.16 0.16 77 1021.0
20200218213055 51 325 4.0 9.0 0.00 0.16 0.16 78 1021.0
20200218212538 51 301 3.0 7.0 0.00 0.16 0.16 80 1021.2
20200218212043 51 314 2.0 6.0 0.00 0.16 0.16 79 1021.5
20200218211559 50 36 3.0 7.0 0.00 0.16 0.16 79 1021.3
20200218211037 50 340 3.0 7.0 0.00 0.16 0.16 81 1021.3
20200218210540 50 22 3.0 7.0 0.00 0.16 0.16 81 1021.3
20200218210040 50 17 1.0 6.0 0.00 0.16 0.16 81 1021.7
20200218205544 50 6 1.0 8.0 0.00 0.16 0.16 81 1021.7
20200218205040 50 323 4.0 8.0 0.00 0.16 0.16 79 1021.7
20200218204607 50 309 2.0 6.0 0.00 0.16 0.16 82 1021.5
20200218204044 50 357 1.0 8.0 0.00 0.16 0.16 84 1021.2
20200218203539 50 302 3.0 8.0 0.00 0.16 0.16 82 1021.0
20200218203119 50 307 3.0 7.0 0.00 0.16 0.16 85 1020.7
20200218202541 49 338 2.0 5.0 0.00 0.16 0.16 89 1019.8
20200218202046 49 0 1.0 5.0 0.00 0.16 0.16 88 1020.5
20200218201607 49 321 0.0 5.0 0.01 0.16 0.16 89 1020.7
20200218201042 49 49 3.0 5.0 0.01 0.16 0.16 88 1019.9
20200218200547 48 58 0.0 8.0 0.01 0.16 0.16 89 1020.2
20200218200048 48 115 2.0 8.0 0.02 0.16 0.16 89 1019.6
20200218195546 48 6 1.0 8.0 0.02 0.16 0.16 90 1019.8
20200218195042 48 359 3.0 8.0 0.03 0.16 0.16 90 1020.3
20200218194620 48 353 3.0 5.0 0.03 0.16 0.16 90 1020.5
20200218194039 48 326 1.0 5.0 0.04 0.16 0.16 90 1020.7
20200218193538 47 336 2.0 6.0 0.06 0.16 0.16 90 1021.0
20200218193107 48 284 1.0 11.0 0.12 0.16 0.16 90 1021.1
20200218192540 47 302 3.0 11.0 0.15 0.16 0.16 90 1020.3
20200218192044 47 37 3.0 11.0 0.15 0.16 0.16 89 1019.5
20200218191622 47 31 3.0 11.0 0.14 0.15 0.15 89 1019.9
20200218191040 47 316 5.0 10.0 0.14 0.15 0.15 88 1020.6
20200218190542 47 60 5.0 8.0 0.14 0.15 0.15 89 1020.5
20200218190146 47 307 3.0 7.0 0.13 0.14 0.14 88 1020.5
20200218185546 48 298 3.0 7.0 0.13 0.14 0.14 88 1021.1
20200218185042 48 323 4.0 9.0 0.12 0.13 0.13 88 1021.1
20200218184718 48 335 4.0 10.0 0.12 0.13 0.13 87 1020.9
20200218184041 48 319 4.0 10.0 0.11 0.12 0.12 88 1020.9
20200218183556 48 343 3.0 7.0 0.09 0.10 0.10 87 1020.5
20200218183106 49 342 3.0 6.0 0.02 0.03 0.03 86 1020.9
20200218182541 49 274 2.0 11.0 0.00 0.01 0.01 84 1021.5
20200218182037 50 288 3.0 11.0 0.00 0.01 0.01 84 1021.0
20200218181558 49 20 7.0 11.0 0.00 0.01 0.01 81 1018.6
20200218181042 50 309 3.0 10.0 0.00 0.01 0.01 81 1020.8
20200218180540 50 294 4.0 10.0 0.00 0.01 0.01 81 1021.0
20200218180050 50 317 3.0 8.0 0.00 0.01 0.01 80 1020.6
20200218175540 50 288 4.0 10.0 0.00 0.01 0.01 80 1020.5
20200218175050 50 295 5.0 10.0 0.00 0.01 0.01 79 1020.3
20200218174555 51 342 4.0 10.0 0.00 0.01 0.01 79 1020.3
20200218174040 50 292 5.0 10.0 0.00 0.01 0.01 79 1020.4
20200218173541 51 226 3.0 9.0 0.00 0.01 0.01 79 1020.6
20200218173152 51 347 3.0 8.0 0.00 0.01 0.01 82 1020.5
20200218172542 51 308 3.0 9.0 0.00 0.01 0.01 81 1020.6
20200218172051 51 323 2.0 9.0 0.00 0.01 0.01 82 1020.5
20200218171606 50 352 2.0 8.0 0.00 0.01 0.01 84 1020.2
20200218171038 50 13 3.0 10.0 0.00 0.01 0.01 83 1020.2
20200218170538 50 37 4.0 10.0 0.00 0.01 0.01 82 1020.4
20200218170048 50 326 2.0 11.0 0.00 0.01 0.01 82 1020.8
20200218165540 50 339 4.0 11.0 0.00 0.01 0.01 82 1020.6
20200218165046 51 312 4.0 13.0 0.00 0.01 0.01 83 1020.4
20200218164618 51 304 4.0 13.0 0.00 0.01 0.01 83 1020.2
20200218164040 51 312 3.0 12.0 0.00 0.01 0.01 85 1019.8
20200218163544 51 329 5.0 13.0 0.01 0.01 0.01 85 1019.8
20200218163123 51 342 6.0 13.0 0.01 0.01 0.01 85 1019.7
20200218162543 51 335 4.0 12.0 0.01 0.01 0.01 88 1019.7
20200218162040 51 292 4.0 13.0 0.01 0.01 0.01 88 1019.6
20200218161609 51 332 4.0 13.0 0.01 0.01 0.01 89 1019.2
20200218161041 51 313 6.0 14.0 0.01 0.01 0.01 89 1019.1
20200218160547 51 307 7.0 14.0 0.01 0.01 0.01 89 1018.9
20200218160039 51 326 5.0 13.0 0.01 0.01 0.01 90 1018.9
20200218155542 51 18 4.0 10.0 0.01 0.01 0.01 91 1018.9
20200218155038 51 306 3.0 9.0 0.01 0.01 0.01 92 1019.1
20200218154625 51 315 3.0 12.0 0.01 0.01 0.01 92 1019.1
20200218154043 52 359 4.0 12.0 0.01 0.01 0.01 91 1019.0
20200218153540 52 329 5.0 11.0 0.00 0.00 0.00 91 1018.9
20200218153046 53 310 2.0 12.0 0.00 0.00 0.00 91 1018.9
20200218152538 53 297 5.0 12.0 0.00 0.00 0.00 91 1018.6
20200218152040 54 328 5.0 11.0 0.00 0.00 0.00 90 1018.5
20200218151612 55 244 4.0 11.0 0.00 0.00 0.00 90 1018.5
20200218151039 56 350 4.0 11.0 0.00 0.00 0.00 90 1018.3
20200218150559 57 327 3.0 8.0 0.00 0.00 0.00 92 1018.1
20200218150146 57 356 4.0 8.0 0.00 0.00 0.00 92 1018.0
20200218145540 57 304 4.0 8.0 0.00 0.00 0.00 92 1017.9
20200218145039 57 294 3.0 8.0 0.00 0.00 0.00 92 1017.9
20200218144609 58 10 3.0 7.0 0.00 0.00 0.00 93 1017.9
20200218144049 58 324 2.0 7.0 0.00 0.00 0.00 93 1017.8
20200218143543 58 321 2.0 7.0 0.00 0.00 0.00 93 1017.7
20200218143121 58 324 2.0 6.0 0.00 0.00 0.00 93 1017.6
20200218142540 58 41 2.0 6.0 0.00 0.00 0.00 93 1017.3
20200218142040 58 40 1.0 7.0 0.00 0.00 0.00 93 1017.2
20200218141716 58 11 3.0 9.0 0.00 0.00 0.00 93 1017.1
20200218141044 58 352 3.0 9.0 0.00 0.00 0.00 93 1017.1
20200218140540 58 347 3.0 7.0 0.00 0.00 0.00 93 1016.9
20200218140126 58 323 2.0 6.0 0.00 0.00 0.00 93 1016.8
20200218135549 59 340 3.0 5.0 0.00 0.00 0.00 92 1016.6
20200218135045 59 340 2.0 6.0 0.00 0.00 0.00 92 1016.6
20200218134626 59 306 2.0 6.0 0.00 0.00 0.00 92 1016.3
20200218134038 59 319 3.0 8.0 0.00 0.00 0.00 91 1016.2
20200218133551 59 331 3.0 8.0 0.00 0.00 0.00 90 1016.3
20200218133049 59 324 3.0 6.0 0.00 0.00 0.00 89 1016.2
20200218132539 60 307 3.0 9.0 0.00 0.00 0.00 87 1016.0
20200218132040 60 23 4.0 9.0 0.00 0.00 0.00 86 1015.9
20200218131626 61 337 2.0 7.0 0.00 0.00 0.00 83 1015.8
20200218131042 61 307 2.0 6.0 0.00 0.00 0.00 79 1015.6
20200218130543 61 309 2.0 7.0 0.00 0.00 0.00 77 1015.5
20200218130055 61 295 3.0 7.0 0.00 0.00 0.00 75 1015.5
20200218125538 61 325 1.0 4.0 0.00 0.00 0.00 73 1015.2
20200218125039 61 304 1.0 4.0 0.00 0.00 0.00 73 1015.0
20200218124621 61 311 1.0 4.0 0.00 0.00 0.00 73 1014.7
20200218124051 62 307 1.0 4.0 0.00 0.00 0.00 72 1014.8
20200218123552 62 315 1.0 3.0 0.00 0.00 0.00 73 1014.7
20200218123128 62 337 0.0 2.0 0.00 0.00 0.00 73 1014.5
20200218122540 62 327 0.0 2.0 0.00 0.00 0.00 72 1014.4
20200218122041 62 323 0.0 1.0 0.00 0.00 0.00 72 1014.5
20200218121610 62 338 0.0 2.0 0.00 0.00 0.00 72 1014.4
20200218121101 62 272 1.0 2.0 0.00 0.00 0.00 72 1014.3
20200218120541 62 316 0.0 2.0 0.00 0.00 0.00 72 1014.2
20200218120054 62 331 1.0 2.0 0.00 0.00 0.00 72 1014.3
20200218115552 62 316 0.0 0.0 0.00 0.00 0.00 72 1014.2
20200218115040 62 0 0.0 1.0 0.00 0.00 0.00 72 1014.2
20200218114555 62 0 0.0 1.0 0.00 0.00 0.00 73 1014.2
20200218114039 62 345 0.0 1.0 0.00 0.00 0.00 72 1014.1
20200218113540 62 0 0.0 2.0 0.00 0.00 0.00 72 1013.8
20200218113156 62 301 0.0 2.0 0.00 0.00 0.00 73 1014.1
20200218112548 62 309 0.0 1.0 0.00 0.00 0.00 73 1014.1
20200218112040 62 0 0.0 0.0 0.00 0.00 0.00 72 1013.8
20200218111621 62 0 0.0 0.0 0.00 0.00 0.00 71 1013.4
20200218111039 62 0 0.0 1.0 0.00 0.00 0.00 71 1013.3
20200218110547 63 0 0.0 1.0 0.00 0.00 0.00 71 1013.3
20200218110055 63 309 0.0 1.0 0.00 0.00 0.00 70 1013.4
20200218105539 63 0 0.0 3.0 0.00 0.00 0.00 70 1013.3
20200218105040 63 309 0.0 3.0 0.00 0.00 0.00 69 1013.4
20200218104618 63 303 0.0 2.0 0.00 0.00 0.00 70 1013.5
20200218104044 63 335 0.0 2.0 0.00 0.00 0.00 74 1013.5
20200218103540 63 23 0.0 1.0 0.00 0.00 0.00 77 1013.4
20200218103104 63 0 0.0 1.0 0.00 0.00 0.00 77 1013.3
20200218102539 63 0 0.0 1.0 0.00 0.00 0.00 77 1013.3
20200218102100 63 0 0.0 2.0 0.00 0.00 0.00 77 1013.1
20200218101656 63 0 0.0 2.0 0.00 0.00 0.00 78 1013.0
20200218101043 63 0 0.0 1.0 0.00 0.00 0.00 77 1013.1
20200218100540 63 0 0.0 1.0 0.00 0.00 0.00 77 1013.1
20200218100116 63 0 0.0 1.0 0.00 0.00 0.00 80 1013.3
20200218095542 62 0 0.0 1.0 0.00 0.00 0.00 77 1013.4
20200218095038 62 212 0.0 1.0 0.00 0.00 0.00 78 1013.3
20200218094647 62 321 0.0 0.0 0.00 0.00 0.00 77 1012.9
20200218094054 62 0 0.0 0.0 0.00 0.00 0.00 77 1012.7
20200218093543 62 0 0.0 0.0 0.00 0.00 0.00 77 1012.6
20200218093100 62 0 0.0 0.0 0.00 0.00 0.00 77 1012.7